Year,Month,Day,Hour,Minute,Value (Times are PST for temperature in C)
2011,03,23,00,00,3.50
2011,03,23,00,01,3.50
2011,03,23,00,02,3.50
2011,03,23,00,03,3.50
2011,03,23,00,04,3.50
2011,03,23,00,05,3.50
2011,03,23,00,06,3.50
2011,03,23,00,07,3.50
2011,03,23,00,08,3.50
2011,03,23,00,09,3.50
2011,03,23,00,10,3.50
2011,03,23,00,11,3.50
2011,03,23,00,12,3.50
2011,03,23,00,13,3.50
2011,03,23,00,14,3.50
2011,03,23,00,15,3.50
2011,03,23,00,16,3.50
2011,03,23,00,17,3.50
2011,03,23,00,18,3.50
2011,03,23,00,19,3.50
2011,03,23,00,20,3.50
2011,03,23,00,21,3.50
2011,03,23,00,22,3.50
2011,03,23,00,23,3.50
2011,03,23,00,24,3.50
2011,03,23,00,25,3.50
2011,03,23,00,26,3.40
2011,03,23,00,27,3.40
2011,03,23,00,28,3.40
2011,03,23,00,29,3.40
2011,03,23,00,30,3.40
2011,03,23,00,31,3.40
2011,03,23,00,32,3.40
2011,03,23,00,33,3.40
2011,03,23,00,34,3.40
2011,03,23,00,35,3.40
2011,03,23,00,36,3.40
2011,03,23,00,37,3.40
2011,03,23,00,38,3.40
2011,03,23,00,39,3.40
2011,03,23,00,40,3.40
2011,03,23,00,41,3.40
2011,03,23,00,42,3.40
2011,03,23,00,43,3.30
2011,03,23,00,44,3.30
2011,03,23,00,45,3.30
2011,03,23,00,46,3.30
2011,03,23,00,47,3.30
2011,03,23,00,48,3.30
2011,03,23,00,49,3.30
2011,03,23,00,50,3.30
2011,03,23,00,51,3.30
2011,03,23,00,52,3.20
2011,03,23,00,53,3.20
2011,03,23,00,54,3.20
2011,03,23,00,55,3.20
2011,03,23,00,56,3.20
2011,03,23,00,57,3.20
2011,03,23,00,58,3.20
2011,03,23,00,59,3.20
2011,03,23,01,00,3.20
2011,03,23,01,01,3.20
2011,03,23,01,02,3.20
2011,03,23,01,03,3.20
2011,03,23,01,04,3.10
2011,03,23,01,05,3.10
2011,03,23,01,06,3.10
2011,03,23,01,07,3.10
2011,03,23,01,08,3.10
2011,03,23,01,09,3.10
2011,03,23,01,10,3.10
2011,03,23,01,11,3.10
2011,03,23,01,12,3.10
2011,03,23,01,13,3.10
2011,03,23,01,14,3.10
2011,03,23,01,15,3.00
2011,03,23,01,16,3.00
2011,03,23,01,17,3.00
2011,03,23,01,18,3.00
2011,03,23,01,19,3.00
2011,03,23,01,20,3.00
2011,03,23,01,21,2.90
2011,03,23,01,22,2.90
2011,03,23,01,23,2.90
2011,03,23,01,24,2.90
2011,03,23,01,25,2.90
2011,03,23,01,26,2.90
2011,03,23,01,27,2.80
2011,03,23,01,28,2.80
2011,03,23,01,29,2.80
2011,03,23,01,30,2.80
2011,03,23,01,31,2.80
2011,03,23,01,32,2.80
2011,03,23,01,33,2.70
2011,03,23,01,34,2.70
2011,03,23,01,35,2.70
2011,03,23,01,36,2.70
2011,03,23,01,37,2.70
2011,03,23,01,38,2.60
2011,03,23,01,39,2.60
2011,03,23,01,40,2.60
2011,03,23,01,41,2.60
2011,03,23,01,42,2.50
2011,03,23,01,43,2.50
2011,03,23,01,44,2.50
2011,03,23,01,45,2.50
2011,03,23,01,46,2.50
2011,03,23,01,47,2.40
2011,03,23,01,48,2.40
2011,03,23,01,49,2.40
2011,03,23,01,50,2.40
2011,03,23,01,51,2.40
2011,03,23,01,52,2.30
2011,03,23,01,53,2.30
2011,03,23,01,54,2.30
2011,03,23,01,55,2.30
2011,03,23,01,56,2.30
2011,03,23,01,57,2.30
2011,03,23,01,58,2.30
2011,03,23,01,59,2.30
2011,03,23,02,00,2.30
2011,03,23,02,01,2.30
2011,03,23,02,02,2.30
2011,03,23,02,03,2.20
2011,03,23,02,04,2.20
2011,03,23,02,05,2.20
2011,03,23,02,06,2.20
2011,03,23,02,07,2.20
2011,03,23,02,08,2.20
2011,03,23,02,09,2.20
2011,03,23,02,10,2.20
2011,03,23,02,11,2.20
2011,03,23,02,12,2.20
2011,03,23,02,13,2.20
2011,03,23,02,14,2.20
2011,03,23,02,15,2.20
2011,03,23,02,16,2.20
2011,03,23,02,17,2.20
2011,03,23,02,18,2.20
2011,03,23,02,19,2.20
2011,03,23,02,20,2.20
2011,03,23,02,21,2.20
2011,03,23,02,22,2.20
2011,03,23,02,23,2.20
2011,03,23,02,24,2.20
2011,03,23,02,25,2.10
2011,03,23,02,26,2.10
2011,03,23,02,27,2.10
2011,03,23,02,28,2.10
2011,03,23,02,29,2.10
2011,03,23,02,30,2.10
2011,03,23,02,31,2.10
2011,03,23,02,32,2.10
2011,03,23,02,33,2.10
2011,03,23,02,34,2.10
2011,03,23,02,35,2.10
2011,03,23,02,36,2.10
2011,03,23,02,37,2.10
2011,03,23,02,38,2.10
2011,03,23,02,39,2.10
2011,03,23,02,40,2.10
2011,03,23,02,41,2.10
2011,03,23,02,42,2.10
2011,03,23,02,43,2.00
2011,03,23,02,44,2.00
2011,03,23,02,45,2.00
2011,03,23,02,46,2.00
2011,03,23,02,47,2.00
2011,03,23,02,48,2.00
2011,03,23,02,49,2.00
2011,03,23,02,50,2.00
2011,03,23,02,51,2.00
2011,03,23,02,52,2.00
2011,03,23,02,53,2.00
2011,03,23,02,54,2.00
2011,03,23,02,55,2.00
2011,03,23,02,56,2.00
2011,03,23,02,57,2.00
2011,03,23,02,58,2.00
2011,03,23,02,59,2.00
2011,03,23,03,00,1.90
2011,03,23,03,01,1.90
2011,03,23,03,02,1.90
2011,03,23,03,03,1.90
2011,03,23,03,04,1.90
2011,03,23,03,05,1.90
2011,03,23,03,06,1.90
2011,03,23,03,07,1.90
2011,03,23,03,08,1.90
2011,03,23,03,09,1.90
2011,03,23,03,10,1.90
2011,03,23,03,11,1.80
2011,03,23,03,12,1.80
2011,03,23,03,13,1.80
2011,03,23,03,14,1.80
2011,03,23,03,15,1.80
2011,03,23,03,16,1.80
2011,03,23,03,17,1.80
2011,03,23,03,18,1.80
2011,03,23,03,19,1.90
2011,03,23,03,20,1.90
2011,03,23,03,21,1.90
2011,03,23,03,22,1.90
2011,03,23,03,23,1.90
2011,03,23,03,24,1.90
2011,03,23,03,25,1.90
2011,03,23,03,26,1.90
2011,03,23,03,27,1.90
2011,03,23,03,28,1.90
2011,03,23,03,29,1.90
2011,03,23,03,30,1.90
2011,03,23,03,31,1.90
2011,03,23,03,32,1.90
2011,03,23,03,33,1.90
2011,03,23,03,34,2.00
2011,03,23,03,35,2.00
2011,03,23,03,36,2.00
2011,03,23,03,37,2.00
2011,03,23,03,38,2.00
2011,03,23,03,39,2.00
2011,03,23,03,40,2.00
2011,03,23,03,41,2.00
2011,03,23,03,42,2.00
2011,03,23,03,43,2.00
2011,03,23,03,44,2.00
2011,03,23,03,45,2.00
2011,03,23,03,46,2.00
2011,03,23,03,47,2.00
2011,03,23,03,48,2.00
2011,03,23,03,49,2.00
2011,03,23,03,50,2.00
2011,03,23,03,51,2.00
2011,03,23,03,52,2.00
2011,03,23,03,53,2.00
2011,03,23,03,54,2.00
2011,03,23,03,55,1.90
2011,03,23,03,56,1.90
2011,03,23,03,57,1.90
2011,03,23,03,58,1.90
2011,03,23,03,59,1.90
2011,03,23,04,00,1.90
2011,03,23,04,01,1.90
2011,03,23,04,02,1.90
2011,03,23,04,03,1.90
2011,03,23,04,04,1.90
2011,03,23,04,05,1.90
2011,03,23,04,06,1.90
2011,03,23,04,07,1.90
2011,03,23,04,08,1.90
2011,03,23,04,09,1.90
2011,03,23,04,10,1.90
2011,03,23,04,11,1.90
2011,03,23,04,12,1.90
2011,03,23,04,13,1.80
2011,03,23,04,14,1.80
2011,03,23,04,15,1.80
2011,03,23,04,16,1.80
2011,03,23,04,17,1.80
2011,03,23,04,18,1.80
2011,03,23,04,19,1.80
2011,03,23,04,20,1.80
2011,03,23,04,21,1.80
2011,03,23,04,22,1.80
2011,03,23,04,23,1.80
2011,03,23,04,24,1.80
2011,03,23,04,25,1.80
2011,03,23,04,26,1.80
2011,03,23,04,27,1.80
2011,03,23,04,28,1.80
2011,03,23,04,29,1.80
2011,03,23,04,30,1.80
2011,03,23,04,31,1.80
2011,03,23,04,32,1.80
2011,03,23,04,33,1.80
2011,03,23,04,34,1.80
2011,03,23,04,35,1.80
2011,03,23,04,36,1.80
2011,03,23,04,37,1.80
2011,03,23,04,38,1.80
2011,03,23,04,39,1.80
2011,03,23,04,40,1.80
2011,03,23,04,41,1.80
2011,03,23,04,42,1.80
2011,03,23,04,43,1.80
2011,03,23,04,44,1.80
2011,03,23,04,45,1.80
2011,03,23,04,46,1.80
2011,03,23,04,47,1.80
2011,03,23,04,48,1.80
2011,03,23,04,49,1.80
2011,03,23,04,50,1.80
2011,03,23,04,51,1.80
2011,03,23,04,52,1.80
2011,03,23,04,53,1.80
2011,03,23,04,54,1.90
2011,03,23,04,55,1.80
2011,03,23,04,56,1.80
2011,03,23,04,57,1.90
2011,03,23,04,58,1.90
2011,03,23,04,59,1.90
2011,03,23,05,00,1.90
2011,03,23,05,01,1.90
2011,03,23,05,02,1.90
2011,03,23,05,03,1.90
2011,03,23,05,04,1.90
2011,03,23,05,05,1.90
2011,03,23,05,06,1.90
2011,03,23,05,07,1.90
2011,03,23,05,08,1.90
2011,03,23,05,09,1.90
2011,03,23,05,10,1.90
2011,03,23,05,11,1.90
2011,03,23,05,12,1.90
2011,03,23,05,13,1.90
2011,03,23,05,14,1.90
2011,03,23,05,15,1.90
2011,03,23,05,16,1.90
2011,03,23,05,17,1.90
2011,03,23,05,18,1.90
2011,03,23,05,19,1.90
2011,03,23,05,20,1.90
2011,03,23,05,21,1.90
2011,03,23,05,22,1.90
2011,03,23,05,23,1.90
2011,03,23,05,24,1.90
2011,03,23,05,25,1.90
2011,03,23,05,26,1.90
2011,03,23,05,27,1.90
2011,03,23,05,28,1.90
2011,03,23,05,29,1.90
2011,03,23,05,30,1.90
2011,03,23,05,31,1.90
2011,03,23,05,32,1.90
2011,03,23,05,33,1.90
2011,03,23,05,34,1.80
2011,03,23,05,35,1.80
2011,03,23,05,36,1.80
2011,03,23,05,37,1.80
2011,03,23,05,38,1.80
2011,03,23,05,39,1.80
2011,03,23,05,40,1.80
2011,03,23,05,41,1.80
2011,03,23,05,42,1.80
2011,03,23,05,43,1.80
2011,03,23,05,44,1.80
2011,03,23,05,45,1.80
2011,03,23,05,46,1.80
2011,03,23,05,47,1.80
2011,03,23,05,48,1.80
2011,03,23,05,49,1.80
2011,03,23,05,50,1.80
2011,03,23,05,51,1.80
2011,03,23,05,52,1.80
2011,03,23,05,53,1.80
2011,03,23,05,54,1.80
2011,03,23,05,55,1.70
2011,03,23,05,56,1.70
2011,03,23,05,57,1.70
2011,03,23,05,58,1.70
2011,03,23,05,59,1.70
2011,03,23,06,00,1.70
2011,03,23,06,01,1.70
2011,03,23,06,02,1.70
2011,03,23,06,03,1.70
2011,03,23,06,04,1.70
2011,03,23,06,05,1.70
2011,03,23,06,06,1.70
2011,03,23,06,07,1.70
2011,03,23,06,08,1.70
2011,03,23,06,09,1.70
2011,03,23,06,10,1.70
2011,03,23,06,11,1.70
2011,03,23,06,12,1.70
2011,03,23,06,13,1.70
2011,03,23,06,14,1.70
2011,03,23,06,15,1.70
2011,03,23,06,16,1.60
2011,03,23,06,17,1.60
2011,03,23,06,18,1.60
2011,03,23,06,19,1.60
2011,03,23,06,20,1.60
2011,03,23,06,21,1.60
2011,03,23,06,22,1.60
2011,03,23,06,23,1.60
2011,03,23,06,24,1.60
2011,03,23,06,25,1.60
2011,03,23,06,26,1.60
2011,03,23,06,27,1.60
2011,03,23,06,28,1.60
2011,03,23,06,29,1.60
2011,03,23,06,30,1.60
2011,03,23,06,31,1.60
2011,03,23,06,32,1.60
2011,03,23,06,33,1.60
2011,03,23,06,34,1.60
2011,03,23,06,35,1.60
2011,03,23,06,36,1.60
2011,03,23,06,37,1.60
2011,03,23,06,38,1.60
2011,03,23,06,39,1.60
2011,03,23,06,40,1.60
2011,03,23,06,41,1.60
2011,03,23,06,42,1.60
2011,03,23,06,43,1.60
2011,03,23,06,44,1.60
2011,03,23,06,45,1.50
2011,03,23,06,46,1.50
2011,03,23,06,47,1.50
2011,03,23,06,48,1.50
2011,03,23,06,49,1.50
2011,03,23,06,50,1.50
2011,03,23,06,51,1.50
2011,03,23,06,52,1.50
2011,03,23,06,53,1.50
2011,03,23,06,54,1.50
2011,03,23,06,55,1.50
2011,03,23,06,56,1.40
2011,03,23,06,57,1.40
2011,03,23,06,58,1.40
2011,03,23,06,59,1.40
2011,03,23,07,00,1.40
2011,03,23,07,01,1.40
2011,03,23,07,02,1.40
2011,03,23,07,03,1.40
2011,03,23,07,04,1.40
2011,03,23,07,05,1.40
2011,03,23,07,06,1.40
2011,03,23,07,07,1.40
2011,03,23,07,08,1.30
2011,03,23,07,09,1.30
2011,03,23,07,10,1.30
2011,03,23,07,11,1.30
2011,03,23,07,12,1.30
2011,03,23,07,13,1.30
2011,03,23,07,14,1.30
2011,03,23,07,15,1.30
2011,03,23,07,16,1.30
2011,03,23,07,17,1.30
2011,03,23,07,18,1.30
2011,03,23,07,19,1.30
2011,03,23,07,20,1.30
2011,03,23,07,21,1.30
2011,03,23,07,22,1.30
2011,03,23,07,23,1.30
2011,03,23,07,24,1.30
2011,03,23,07,25,1.30
2011,03,23,07,26,1.30
2011,03,23,07,27,1.30
2011,03,23,07,28,1.30
2011,03,23,07,29,1.20
2011,03,23,07,30,1.20
2011,03,23,07,31,1.20
2011,03,23,07,32,1.20
2011,03,23,07,33,1.20
2011,03,23,07,34,1.20
2011,03,23,07,35,1.20
2011,03,23,07,36,1.20
2011,03,23,07,37,1.20
2011,03,23,07,38,1.20
2011,03,23,07,39,1.10
2011,03,23,07,40,1.10
2011,03,23,07,41,1.10
2011,03,23,07,42,1.10
2011,03,23,07,43,1.10
2011,03,23,07,44,1.10
2011,03,23,07,45,1.10
2011,03,23,07,46,1.10
2011,03,23,07,47,1.10
2011,03,23,07,48,1.10
2011,03,23,07,49,1.10
2011,03,23,07,50,1.10
2011,03,23,07,51,1.10
2011,03,23,07,52,1.10
2011,03,23,07,53,1.10
2011,03,23,07,54,1.10
2011,03,23,07,55,1.10
2011,03,23,07,56,1.10
2011,03,23,07,57,1.10
2011,03,23,07,58,1.00
2011,03,23,07,59,1.10
2011,03,23,08,00,1.10
2011,03,23,08,01,1.00
2011,03,23,08,02,1.00
2011,03,23,08,03,1.00
2011,03,23,08,04,1.00
2011,03,23,08,05,1.00
2011,03,23,08,06,1.00
2011,03,23,08,07,1.00
2011,03,23,08,08,1.00
2011,03,23,08,09,1.00
2011,03,23,08,10,1.00
2011,03,23,08,11,1.00
2011,03,23,08,12,1.00
2011,03,23,08,13,1.00
2011,03,23,08,14,1.00
2011,03,23,08,15,1.00
2011,03,23,08,16,1.00
2011,03,23,08,17,1.00
2011,03,23,08,18,1.10
2011,03,23,08,19,1.10
2011,03,23,08,20,1.10
2011,03,23,08,21,1.10
2011,03,23,08,22,1.10
2011,03,23,08,23,1.10
2011,03,23,08,24,1.10
2011,03,23,08,25,1.10
2011,03,23,08,26,1.20
2011,03,23,08,27,1.20
2011,03,23,08,28,1.20
2011,03,23,08,29,1.20
2011,03,23,08,30,1.30
2011,03,23,08,31,1.30
2011,03,23,08,32,1.30
2011,03,23,08,33,1.40
2011,03,23,08,34,1.50
2011,03,23,08,35,1.50
2011,03,23,08,36,1.60
2011,03,23,08,37,1.60
2011,03,23,08,38,1.70
2011,03,23,08,39,1.80
2011,03,23,08,40,1.80
2011,03,23,08,41,1.90
2011,03,23,08,42,1.90
2011,03,23,08,43,2.00
2011,03,23,08,44,2.10
2011,03,23,08,45,2.10
2011,03,23,08,46,2.20
2011,03,23,08,47,2.20
2011,03,23,08,48,2.30
2011,03,23,08,49,2.30
2011,03,23,08,50,2.40
2011,03,23,08,51,2.40
2011,03,23,08,52,2.50
2011,03,23,08,53,2.60
2011,03,23,08,54,2.60
2011,03,23,08,55,2.70
2011,03,23,08,56,2.70
2011,03,23,08,57,2.80
2011,03,23,08,58,2.90
2011,03,23,08,59,2.90
2011,03,23,09,00,3.00
2011,03,23,09,01,3.00
2011,03,23,09,02,3.10
2011,03,23,09,03,3.10
2011,03,23,09,04,3.10
2011,03,23,09,05,3.10
2011,03,23,09,06,3.20
2011,03,23,09,07,3.20
2011,03,23,09,08,3.20
2011,03,23,09,09,3.20
2011,03,23,09,10,3.20
2011,03,23,09,11,3.20
2011,03,23,09,12,3.20
2011,03,23,09,13,3.20
2011,03,23,09,14,3.20
2011,03,23,09,15,3.20
2011,03,23,09,16,3.20
2011,03,23,09,17,3.10
2011,03,23,09,18,3.10
2011,03,23,09,19,3.10
2011,03,23,09,20,3.10
2011,03,23,09,21,3.10
2011,03,23,09,22,3.10
2011,03,23,09,23,3.10
2011,03,23,09,24,3.10
2011,03,23,09,25,3.10
2011,03,23,09,26,3.10
2011,03,23,09,27,3.10
2011,03,23,09,28,3.20
2011,03,23,09,29,3.20
2011,03,23,09,30,3.20
2011,03,23,09,31,3.20
2011,03,23,09,32,3.20
2011,03,23,09,33,3.30
2011,03,23,09,34,3.30
2011,03,23,09,35,3.30
2011,03,23,09,36,3.30
2011,03,23,09,37,3.30
2011,03,23,09,38,3.40
2011,03,23,09,39,3.40
2011,03,23,09,40,3.40
2011,03,23,09,41,3.50
2011,03,23,09,42,3.60
2011,03,23,09,43,3.60
2011,03,23,09,44,3.70
2011,03,23,09,45,3.70
2011,03,23,09,46,3.80
2011,03,23,09,47,3.80
2011,03,23,09,48,3.90
2011,03,23,09,49,4.00
2011,03,23,09,50,4.00
2011,03,23,09,51,4.10
2011,03,23,09,52,4.20
2011,03,23,09,53,4.30
2011,03,23,09,54,4.50
2011,03,23,09,55,4.50
2011,03,23,09,56,4.70
2011,03,23,09,57,4.80
2011,03,23,09,58,4.90
2011,03,23,09,59,5.00
2011,03,23,10,00,5.10
2011,03,23,10,01,5.20
2011,03,23,10,02,5.30
2011,03,23,10,03,5.40
2011,03,23,10,04,5.40
2011,03,23,10,05,5.50
2011,03,23,10,06,5.60
2011,03,23,10,07,5.60
2011,03,23,10,08,5.70
2011,03,23,10,09,5.70
2011,03,23,10,10,5.70
2011,03,23,10,11,5.80
2011,03,23,10,12,5.80
2011,03,23,10,13,5.80
2011,03,23,10,14,5.80
2011,03,23,10,15,5.80
2011,03,23,10,16,5.80
2011,03,23,10,17,5.80
2011,03,23,10,18,5.80
2011,03,23,10,19,5.90
2011,03,23,10,20,5.90
2011,03,23,10,21,5.90
2011,03,23,10,22,5.90
2011,03,23,10,23,5.90
2011,03,23,10,24,6.00
2011,03,23,10,25,6.00
2011,03,23,10,26,6.10
2011,03,23,10,27,6.10
2011,03,23,10,28,6.20
2011,03,23,10,29,6.20
2011,03,23,10,30,6.30
2011,03,23,10,31,6.30
2011,03,23,10,32,6.30
2011,03,23,10,33,6.40
2011,03,23,10,34,6.40
2011,03,23,10,35,6.40
2011,03,23,10,36,6.50
2011,03,23,10,37,6.60
2011,03,23,10,38,6.60
2011,03,23,10,39,6.60
2011,03,23,10,40,6.70
2011,03,23,10,41,6.70
2011,03,23,10,42,6.80
2011,03,23,10,43,6.80
2011,03,23,10,44,6.90
2011,03,23,10,45,6.90
2011,03,23,10,46,7.00
2011,03,23,10,47,7.10
2011,03,23,10,48,7.10
2011,03,23,10,49,7.10
2011,03,23,10,50,7.10
2011,03,23,10,51,7.10
2011,03,23,10,52,7.10
2011,03,23,10,53,7.10
2011,03,23,10,54,7.10
2011,03,23,10,55,7.10
2011,03,23,10,56,7.10
2011,03,23,10,57,7.10
2011,03,23,10,58,7.20
2011,03,23,10,59,7.20
2011,03,23,11,00,7.20
2011,03,23,11,01,7.20
2011,03,23,11,02,7.20
2011,03,23,11,03,7.20
2011,03,23,11,04,7.20
2011,03,23,11,05,7.20
2011,03,23,11,06,7.20
2011,03,23,11,07,7.20
2011,03,23,11,08,7.20
2011,03,23,11,09,7.20
2011,03,23,11,10,7.20
2011,03,23,11,11,7.20
2011,03,23,11,12,7.20
2011,03,23,11,13,7.30
2011,03,23,11,14,7.30
2011,03,23,11,15,7.30
2011,03,23,11,16,7.30
2011,03,23,11,17,7.30
2011,03,23,11,18,7.30
2011,03,23,11,19,7.30
2011,03,23,11,20,7.30
2011,03,23,11,21,7.30
2011,03,23,11,22,7.40
2011,03,23,11,23,7.40
2011,03,23,11,24,7.40
2011,03,23,11,25,7.50
2011,03,23,11,26,7.50
2011,03,23,11,27,7.60
2011,03,23,11,28,7.60
2011,03,23,11,29,7.60
2011,03,23,11,30,7.60
2011,03,23,11,31,7.70
2011,03,23,11,32,7.60
2011,03,23,11,33,7.60
2011,03,23,11,34,7.70
2011,03,23,11,35,7.70
2011,03,23,11,36,7.70
2011,03,23,11,37,7.70
2011,03,23,11,38,7.70
2011,03,23,11,39,7.70
2011,03,23,11,40,7.70
2011,03,23,11,41,7.70
2011,03,23,11,42,7.70
2011,03,23,11,43,7.70
2011,03,23,11,44,7.80
2011,03,23,11,45,7.80
2011,03,23,11,46,7.80
2011,03,23,11,47,7.80
2011,03,23,11,48,7.80
2011,03,23,11,49,7.80
2011,03,23,11,50,7.80
2011,03,23,11,51,7.80
2011,03,23,11,52,7.80
2011,03,23,11,53,7.80
2011,03,23,11,54,7.80
2011,03,23,11,55,7.90
2011,03,23,11,56,7.90
2011,03,23,11,57,7.90
2011,03,23,11,58,7.90
2011,03,23,11,59,8.00
2011,03,23,12,00,8.00
2011,03,23,12,01,8.00
2011,03,23,12,02,8.10
2011,03,23,12,03,8.10
2011,03,23,12,04,8.10
2011,03,23,12,05,8.10
2011,03,23,12,06,8.10
2011,03,23,12,07,8.10
2011,03,23,12,08,8.10
2011,03,23,12,09,8.20
2011,03,23,12,10,8.20
2011,03,23,12,11,8.20
2011,03,23,12,12,8.20
2011,03,23,12,13,8.30
2011,03,23,12,14,8.30
2011,03,23,12,15,8.30
2011,03,23,12,16,8.40
2011,03,23,12,17,8.40
2011,03,23,12,18,8.50
2011,03,23,12,19,8.50
2011,03,23,12,20,8.40
2011,03,23,12,21,8.40
2011,03,23,12,22,8.40
2011,03,23,12,23,8.40
2011,03,23,12,24,8.40
2011,03,23,12,25,8.30
2011,03,23,12,26,8.30
2011,03,23,12,27,8.30
2011,03,23,12,28,8.30
2011,03,23,12,29,8.30
2011,03,23,12,30,8.30
2011,03,23,12,31,8.30
2011,03,23,12,32,8.40
2011,03,23,12,33,8.40
2011,03,23,12,34,8.40
2011,03,23,12,35,8.40
2011,03,23,12,36,8.40
2011,03,23,12,37,8.40
2011,03,23,12,38,8.40
2011,03,23,12,39,8.40
2011,03,23,12,40,8.40
2011,03,23,12,41,8.50
2011,03,23,12,42,8.50
2011,03,23,12,43,8.50
2011,03,23,12,44,8.60
2011,03,23,12,45,8.60
2011,03,23,12,46,8.60
2011,03,23,12,47,8.70
2011,03,23,12,48,8.70
2011,03,23,12,49,8.70
2011,03,23,12,50,8.80
2011,03,23,12,51,8.80
2011,03,23,12,52,8.90
2011,03,23,12,53,8.90
2011,03,23,12,54,8.90
2011,03,23,12,55,8.90
2011,03,23,12,56,8.90
2011,03,23,12,57,8.80
2011,03,23,12,58,8.80
2011,03,23,12,59,8.80
2011,03,23,13,00,8.80
2011,03,23,13,01,8.80
2011,03,23,13,02,8.80
2011,03,23,13,03,8.80
2011,03,23,13,04,8.80
2011,03,23,13,05,8.80
2011,03,23,13,06,8.90
2011,03,23,13,07,8.90
2011,03,23,13,08,8.90
2011,03,23,13,09,8.90
2011,03,23,13,10,8.90
2011,03,23,13,11,8.90
2011,03,23,13,12,8.90
2011,03,23,13,13,8.90
2011,03,23,13,14,8.90
2011,03,23,13,15,8.90
2011,03,23,13,16,8.90
2011,03,23,13,17,8.90
2011,03,23,13,18,8.90
2011,03,23,13,19,8.90
2011,03,23,13,20,8.90
2011,03,23,13,21,8.90
2011,03,23,13,22,9.00
2011,03,23,13,23,9.00
2011,03,23,13,24,9.00
2011,03,23,13,25,9.00
2011,03,23,13,26,9.00
2011,03,23,13,27,9.10
2011,03,23,13,28,9.10
2011,03,23,13,29,9.10
2011,03,23,13,30,9.10
2011,03,23,13,31,9.10
2011,03,23,13,32,9.10
2011,03,23,13,33,9.10
2011,03,23,13,34,9.20
2011,03,23,13,35,9.20
2011,03,23,13,36,9.20
2011,03,23,13,37,9.30
2011,03,23,13,38,9.30
2011,03,23,13,39,9.30
2011,03,23,13,40,9.40
2011,03,23,13,41,9.40
2011,03,23,13,42,9.40
2011,03,23,13,43,9.50
2011,03,23,13,44,9.50
2011,03,23,13,45,9.60
2011,03,23,13,46,9.60
2011,03,23,13,47,9.70
2011,03,23,13,48,9.70
2011,03,23,13,49,9.70
2011,03,23,13,50,9.80
2011,03,23,13,51,9.80
2011,03,23,13,52,9.80
2011,03,23,13,53,9.80
2011,03,23,13,54,9.90
2011,03,23,13,55,9.90
2011,03,23,13,56,9.90
2011,03,23,13,57,9.90
2011,03,23,13,58,9.90
2011,03,23,13,59,9.90
2011,03,23,14,00,9.90
2011,03,23,14,01,9.90
2011,03,23,14,02,9.90
2011,03,23,14,03,9.90
2011,03,23,14,04,10.00
2011,03,23,14,05,10.00
2011,03,23,14,06,10.00
2011,03,23,14,07,10.10
2011,03,23,14,08,10.10
2011,03,23,14,09,10.10
2011,03,23,14,10,10.10
2011,03,23,14,11,10.10
2011,03,23,14,12,10.10
2011,03,23,14,13,10.10
2011,03,23,14,14,10.10
2011,03,23,14,15,10.20
2011,03,23,14,16,10.20
2011,03,23,14,17,10.20
2011,03,23,14,18,10.20
2011,03,23,14,19,10.20
2011,03,23,14,20,10.10
2011,03,23,14,21,10.20
2011,03,23,14,22,10.20
2011,03,23,14,23,10.20
2011,03,23,14,24,10.20
2011,03,23,14,25,10.20
2011,03,23,14,26,10.30
2011,03,23,14,27,10.30
2011,03,23,14,28,10.30
2011,03,23,14,29,10.30
2011,03,23,14,30,10.40
2011,03,23,14,31,10.40
2011,03,23,14,32,10.40
2011,03,23,14,33,10.40
2011,03,23,14,34,10.40
2011,03,23,14,35,10.50
2011,03,23,14,36,10.50
2011,03,23,14,37,10.60
2011,03,23,14,38,10.60
2011,03,23,14,39,10.70
2011,03,23,14,40,10.70
2011,03,23,14,41,10.70
2011,03,23,14,42,10.70
2011,03,23,14,43,10.70
2011,03,23,14,44,10.70
2011,03,23,14,45,10.70
2011,03,23,14,46,10.70
2011,03,23,14,47,10.70
2011,03,23,14,48,10.70
2011,03,23,14,49,10.70
2011,03,23,14,50,10.70
2011,03,23,14,51,10.80
2011,03,23,14,52,10.80
2011,03,23,14,53,10.80
2011,03,23,14,54,10.90
2011,03,23,14,55,10.90
2011,03,23,14,56,10.90
2011,03,23,14,57,10.90
2011,03,23,14,58,11.00
2011,03,23,14,59,11.00
2011,03,23,15,00,10.90
2011,03,23,15,01,10.90
2011,03,23,15,02,10.90
2011,03,23,15,03,10.90
2011,03,23,15,04,10.80
2011,03,23,15,05,10.80
2011,03,23,15,06,10.90
2011,03,23,15,07,10.90
2011,03,23,15,08,10.90
2011,03,23,15,09,10.90
2011,03,23,15,10,10.90
2011,03,23,15,11,10.90
2011,03,23,15,12,10.90
2011,03,23,15,13,10.80
2011,03,23,15,14,10.80
2011,03,23,15,15,10.80
2011,03,23,15,16,10.80
2011,03,23,15,17,10.80
2011,03,23,15,18,10.80
2011,03,23,15,19,10.80
2011,03,23,15,20,10.80
2011,03,23,15,21,10.80
2011,03,23,15,22,10.80
2011,03,23,15,23,10.80
2011,03,23,15,24,10.80
2011,03,23,15,25,10.90
2011,03,23,15,26,10.90
2011,03,23,15,27,10.90
2011,03,23,15,28,10.90
2011,03,23,15,29,10.90
2011,03,23,15,30,10.90
2011,03,23,15,31,10.90
2011,03,23,15,32,10.90
2011,03,23,15,33,10.90
2011,03,23,15,34,10.90
2011,03,23,15,35,10.90
2011,03,23,15,36,10.90
2011,03,23,15,37,11.00
2011,03,23,15,38,11.00
2011,03,23,15,39,11.00
2011,03,23,15,40,10.90
2011,03,23,15,41,10.90
2011,03,23,15,42,10.90
2011,03,23,15,43,10.90
2011,03,23,15,44,10.90
2011,03,23,15,45,10.90
2011,03,23,15,46,10.90
2011,03,23,15,47,10.80
2011,03,23,15,48,10.80
2011,03,23,15,49,10.80
2011,03,23,15,50,10.80
2011,03,23,15,51,10.80
2011,03,23,15,52,10.90
2011,03,23,15,53,10.90
2011,03,23,15,54,10.90
2011,03,23,15,55,11.00
2011,03,23,15,56,11.00
2011,03,23,15,57,11.00
2011,03,23,15,58,11.10
2011,03,23,15,59,11.10
2011,03,23,16,00,11.20
2011,03,23,16,01,11.20
2011,03,23,16,02,11.20
2011,03,23,16,03,11.20
2011,03,23,16,04,11.30
2011,03,23,16,05,11.30
2011,03,23,16,06,11.30
2011,03,23,16,07,11.40
2011,03,23,16,08,11.40
2011,03,23,16,09,11.40
2011,03,23,16,10,11.50
2011,03,23,16,11,11.50
2011,03,23,16,12,11.50
2011,03,23,16,13,11.50
2011,03,23,16,14,11.50
2011,03,23,16,15,11.50
2011,03,23,16,16,11.50
2011,03,23,16,17,11.50
2011,03,23,16,18,11.50
2011,03,23,16,19,11.40
2011,03,23,16,20,11.50
2011,03,23,16,21,11.50
2011,03,23,16,22,11.50
2011,03,23,16,23,11.50
2011,03,23,16,24,11.50
2011,03,23,16,25,11.60
2011,03,23,16,26,11.50
2011,03,23,16,27,11.50
2011,03,23,16,28,11.50
2011,03,23,16,29,11.50
2011,03,23,16,30,11.50
2011,03,23,16,31,11.50
2011,03,23,16,32,11.50
2011,03,23,16,33,11.60
2011,03,23,16,34,11.60
2011,03,23,16,35,11.60
2011,03,23,16,36,11.60
2011,03,23,16,37,11.60
2011,03,23,16,38,11.70
2011,03,23,16,39,11.70
2011,03,23,16,40,11.70
2011,03,23,16,41,11.70
2011,03,23,16,42,11.70
2011,03,23,16,43,11.70
2011,03,23,16,44,11.70
2011,03,23,16,45,11.70
2011,03,23,16,46,11.70
2011,03,23,16,47,11.70
2011,03,23,16,48,11.70
2011,03,23,16,49,11.80
2011,03,23,16,50,11.80
2011,03,23,16,51,11.80
2011,03,23,16,52,11.80
2011,03,23,16,53,11.80
2011,03,23,16,54,11.90
2011,03,23,16,55,11.90
2011,03,23,16,56,11.90
2011,03,23,16,57,11.90
2011,03,23,16,58,11.90
2011,03,23,16,59,11.90
2011,03,23,17,00,11.80
2011,03,23,17,01,11.80
2011,03,23,17,02,11.80
2011,03,23,17,03,11.80
2011,03,23,17,04,11.80
2011,03,23,17,05,11.80
2011,03,23,17,06,11.80
2011,03,23,17,07,11.80
2011,03,23,17,08,11.80
2011,03,23,17,09,11.80
2011,03,23,17,10,11.80
2011,03,23,17,11,11.80
2011,03,23,17,12,11.80
2011,03,23,17,13,11.80
2011,03,23,17,14,11.80
2011,03,23,17,15,11.80
2011,03,23,17,16,11.80
2011,03,23,17,17,11.80
2011,03,23,17,18,11.80
2011,03,23,17,19,11.80
2011,03,23,17,20,11.80
2011,03,23,17,21,11.80
2011,03,23,17,22,11.80
2011,03,23,17,23,11.80
2011,03,23,17,24,11.80
2011,03,23,17,25,11.80
2011,03,23,17,26,11.80
2011,03,23,17,27,11.80
2011,03,23,17,28,11.70
2011,03,23,17,29,11.70
2011,03,23,17,30,11.70
2011,03,23,17,31,11.70
2011,03,23,17,32,11.70
2011,03,23,17,33,11.70
2011,03,23,17,34,11.70
2011,03,23,17,35,11.70
2011,03,23,17,36,11.70
2011,03,23,17,37,11.80
2011,03,23,17,38,11.80
2011,03,23,17,39,11.80
2011,03,23,17,40,11.80
2011,03,23,17,41,11.80
2011,03,23,17,42,11.80
2011,03,23,17,43,11.80
2011,03,23,17,44,11.80
2011,03,23,17,45,11.80
2011,03,23,17,46,11.80
2011,03,23,17,47,11.80
2011,03,23,17,48,11.80
2011,03,23,17,49,11.80
2011,03,23,17,50,11.80
2011,03,23,17,51,11.80
2011,03,23,17,52,11.90
2011,03,23,17,53,11.90
2011,03,23,17,54,11.90
2011,03,23,17,55,11.90
2011,03,23,17,56,11.90